Location: Grand Lay
(47.3253°N, 0.9468°E)
Time: 08:47:53
(UTC+00:00)

Cosmos 2184 Rocket - Pass Details

Date: 18 January 2026
Orbit: 959 x 1001 km, 82.9° (Epoch: 18 February)

Event Time Altitude Azimuth Distance (km) Brightness Sun altitude
Rises 04:51:22 0° 176° (S) 3,649 7.1 -27.5°
Reaches altitude 10° 04:53:53 10° 173° (S) 2,701 6.4 -27.1°
Maximum altitude 04:59:58 64° 94° (E) 1,061 4.3 -26.1°
Drops below altitude 10° 05:06:04 10° 14° (NNE) 2,703 6.4 -25.1°
Sets 05:08:35 0° 12° (NNE) 3,653 7.1 -24.6°
